Miscellaneous Local Product
Issued by NWS Hastings, NE

Home | Current Version | Previous Version | Graphics & Text | Print | Product List | Glossary On
Versions: 1 2 3 4 5 6 7 8 9 10 11 12 13 14 15 16 17 18 19 20 21 22 23 24 25 26 27 28 29 30 31 32 33 34 35 36 37 38 39 40 41 42 43 44 45 46 47 48 49 50
000
AXUS43 KGID 200202
MISGRI

GID CWA HOURLY WEATHER ROUNDUP
NATIONAL WEATHER SERVICE HASTINGS NE
800 PM CST SUN FEB 19 2017

NOTE: "FAIR" INDICATES FEW OR NO CLOUDS BELOW 12,000 FEET WITH NO
SIGNIFICANT WEATHER AND/OR OBSTRUCTIONS TO VISIBILITY.

...SOUTH CENTRAL NEBRASKA...

CITY           SKY/WX    TMP DP  RH WIND       PRES   REMARKS
GRAND ISLAND   CLOUDY    55  49  80 S17       29.76R
HASTINGS       MOCLDY    57  49  74 S15       29.76F
KEARNEY        PTCLDY    55  46  71 S21G26    29.73F
ORD            PTCLDY    59  47  64 SE14      29.69R
YORK           MOCLDY    55  50  82 S18       29.79S
AURORA         CLOUDY    56  50  82 S20G26    29.77S
LEXINGTON      CLOUDY    60  47  61 SE21      29.69S
HOLDREGE       PTCLDY    57  47  70 SE20G25   29.72S
HEBRON         MOCLDY    56  50  81 S14       29.80F

...NEBRASKA PANHANDLE...

CITY           SKY/WX    TMP DP  RH WIND       PRES   REMARKS
CHADRON        CLOUDY    52  34  50 W6        29.57R
ALLIANCE       CLOUDY    46  34  62 SE5       29.58R
SCOTTSBLUFF    CLOUDY    50  32  50 NW8       29.58R
SIDNEY         CLOUDY    52  35  52 S10       29.60R

...WESTERN AND NORTH CENTRAL NEBRASKA...

CITY           SKY/WX    TMP DP  RH WIND       PRES   REMARKS
VALENTINE      MOCLDY    55  39  54 W3        29.60R
AINSWORTH      LGT RAIN  60  47  62 S33G44    29.63S
ONEILL         MOCLDY    60  48  65 S15G21    29.67R
BROKEN BOW     PTCLDY    61  47  59 S16G25    29.67S
IMPERIAL       MOCLDY    63  33  32 S25G32    29.59F
NORTH PLATTE   PTCLDY    63  50  62 S14       29.64R
MCCOOK         PTCLDY    64  49  57 S18       29.67R

...EASTERN NEBRASKA...

CITY           SKY/WX    TMP DP  RH WIND       PRES   REMARKS
NORFOLK        PTCLDY    59  49  69 S20       29.72S
SO SIOUX CITY  CLOUDY    58  50  75 SE10      29.75S
TEKAMAH        CLOUDY    56  50  80 S10       29.77S
COLUMBUS       PTCLDY    59  48  67 S15       29.78R
ALBION         MOCLDY    58  49  73 S14       29.74R
OMAHA EPPLEY   CLOUDY    60  50  69 S10       29.80S
OFFUTT AFB     PTCLDY    61  55  81 S7        29.81S
MILLARD        PTCLDY    63  54  72 SE9       29.80S
LINCOLN        PTCLDY    57  51  80 S15       29.82R
NEBRASKA CITY  PTCLDY    59  51  74 S15       29.84S
BEATRICE       CLEAR     57  53  86 S16G22    29.83S
FALLS CITY     CLOUDY    60  54  80 S12       29.85S

...NORTHERN KANSAS...

CITY           SKY/WX    TMP DP  RH WIND       PRES   REMARKS
GOODLAND       MOCLDY    60  33  36 SE26G35   29.65F
HILL CITY      PTCLDY    58  54  86 S14G21    29.73R
NORTON         CLEAR     57  46  67 SE14      29.71S
PHILLIPSBURG   MOCLDY    59  52  77 SE10      29.76R
SMITH CENTER   CLEAR     54  50  87 SE16      29.77R
HAYS           PTCLDY    57  52  83 S16       29.77S
RUSSELL        PTCLDY    56  52  86 SE17      29.77R
CONCORDIA      CLOUDY    58  53  84 S16       29.80F
SALINA         PTCLDY    58  53  84 SE9       29.82S
TOPEKA         PTCLDY    56  51  84 S3        29.87R



USA.gov is the U.S. government's official web portal to all federal, state and local government web resources and services.